Time,TemperatureF,DewpointF,PressureIn,WindDirection,WindDirectionDegrees,WindSpeedMPH,WindSpeedGustMPH,Humidity,HourlyPrecipIn,Conditions,Clouds,dailyrainin,SoftwareType,DateUTC
2013-03-19 00:08:00,28.3,22.0,30.23,NNW,346,3.0,6.0,76,0.00,,,0.00,weatherlink.com 1.10,2013-03-19 04:08:00,
2013-03-19 00:23:00,28.6,20.0,30.23,NNW,343,0.0,4.0,69,0.00,,,0.00,weatherlink.com 1.10,2013-03-19 04:23:00,
2013-03-19 00:38:00,28.3,16.0,30.23,NNW,343,2.0,5.0,61,0.00,,,0.00,weatherlink.com 1.10,2013-03-19 04:38:00,
2013-03-19 00:53:00,28.1,17.0,30.23,NNW,343,0.0,3.0,63,0.00,,,0.00,weatherlink.com 1.10,2013-03-19 04:53:00,
2013-03-19 01:08:00,28.5,15.0,30.23,NNW,343,1.0,2.0,58,0.00,,,0.00,weatherlink.com 1.10,2013-03-19 05:08:00,
2013-03-19 01:23:00,28.5,16.0,30.23,NNW,343,0.0,2.0,60,0.00,,,0.00,weatherlink.com 1.10,2013-03-19 05:23:00,
2013-03-19 01:38:00,28.6,17.0,30.23,NNW,342,3.0,4.0,62,0.00,,,0.00,weatherlink.com 1.10,2013-03-19 05:38:00,
2013-03-19 01:53:00,29.0,20.0,30.23,NW,313,3.0,5.0,68,0.00,,,0.00,weatherlink.com 1.10,2013-03-19 05:53:00,
2013-03-19 02:08:00,28.9,18.0,30.22,NW,325,1.0,5.0,64,0.00,,,0.00,weatherlink.com 1.10,2013-03-19 06:08:00,
2013-03-19 02:23:00,28.4,16.0,30.21,NW,325,4.0,4.0,60,0.00,,,0.00,weatherlink.com 1.10,2013-03-19 06:23:00,
2013-03-19 02:39:00,29.4,19.0,30.20,NNE,17,5.0,7.0,64,0.00,,,0.00,weatherlink.com 1.10,2013-03-19 06:39:00,
2013-03-19 02:54:00,29.8,17.0,30.20,NE,37,7.0,9.0,60,0.00,,,0.00,weatherlink.com 1.10,2013-03-19 06:54:00,
2013-03-19 03:09:00,29.8,15.0,30.19,NNE,33,8.0,11.0,55,0.00,,,0.00,weatherlink.com 1.10,2013-03-19 07:09:00,
2013-03-19 03:24:00,30.0,15.0,30.19,NNE,26,9.0,10.0,53,0.00,,,0.00,weatherlink.com 1.10,2013-03-19 07:24:00,
2013-03-19 03:39:00,30.0,15.0,30.18,NNE,27,7.0,10.0,53,0.00,,,0.00,weatherlink.com 1.10,2013-03-19 07:39:00,
2013-03-19 03:54:00,30.1,14.0,30.17,NE,36,10.0,13.0,51,0.00,,,0.00,weatherlink.com 1.10,2013-03-19 07:54:00,
2013-03-19 04:09:00,30.4,15.0,30.17,NNE,30,10.0,14.0,53,0.00,,,0.00,weatherlink.com 1.10,2013-03-19 08:09:00,
2013-03-19 04:24:00,29.5,13.0,30.16,NNE,33,13.0,16.0,50,0.00,,,0.00,weatherlink.com 1.10,2013-03-19 08:24:00,
2013-03-19 04:39:00,29.0,13.0,30.16,NE,40,13.0,17.0,52,0.00,,,0.00,weatherlink.com 1.10,2013-03-19 08:39:00,
2013-03-19 04:54:00,28.3,13.0,30.15,NNE,22,15.0,18.0,53,0.00,,,0.00,weatherlink.com 1.10,2013-03-19 08:54:00,
2013-03-19 05:09:00,27.9,14.0,30.16,NNE,32,11.0,18.0,55,0.00,,,0.00,weatherlink.com 1.10,2013-03-19 09:09:00,
2013-03-19 05:24:00,27.3,13.0,30.16,NE,37,11.0,18.0,56,0.00,,,0.00,weatherlink.com 1.10,2013-03-19 09:24:00,
2013-03-19 05:39:00,27.2,15.0,30.16,NE,42,9.0,17.0,60,0.00,,,0.00,weatherlink.com 1.10,2013-03-19 09:39:00,
2013-03-19 05:54:00,27.0,14.0,30.15,NNE,31,13.0,20.0,59,0.00,,,0.00,weatherlink.com 1.10,2013-03-19 09:54:00,
2013-03-19 06:09:00,26.8,14.0,30.15,NNE,26,12.0,17.0,59,0.00,,,0.00,weatherlink.com 1.10,2013-03-19 10:09:00,
2013-03-19 06:24:00,26.6,15.0,30.16,NNE,26,11.0,18.0,61,0.00,,,0.00,weatherlink.com 1.10,2013-03-19 10:24:00,
2013-03-19 06:39:00,26.5,15.0,30.15,NNE,30,10.0,16.0,61,0.00,,,0.00,weatherlink.com 1.10,2013-03-19 10:39:00,
2013-03-19 06:54:00,26.5,15.0,30.15,North,9,9.0,18.0,62,0.00,,,0.00,weatherlink.com 1.10,2013-03-19 10:54:00,
2013-03-19 07:09:00,26.4,15.0,30.15,North,5,10.0,17.0,62,0.00,,,0.00,weatherlink.com 1.10,2013-03-19 11:09:00,
2013-03-19 07:24:00,26.4,16.0,30.14,NNE,22,13.0,18.0,64,0.00,,,0.00,weatherlink.com 1.10,2013-03-19 11:24:00,
2013-03-19 07:39:00,26.2,15.0,30.14,NNE,15,14.0,17.0,64,0.00,,,0.00,weatherlink.com 1.10,2013-03-19 11:39:00,
2013-03-19 07:54:00,25.8,18.0,30.13,NE,42,14.0,18.0,71,0.00,,,0.00,weatherlink.com 1.10,2013-03-19 11:54:00,
2013-03-19 08:09:00,25.3,19.0,30.13,NNE,15,10.0,18.0,76,0.00,,,0.00,weatherlink.com 1.10,2013-03-19 12:09:00,
2013-03-19 08:24:00,25.3,20.0,30.12,NNE,16,12.0,17.0,80,0.00,,,0.00,weatherlink.com 1.10,2013-03-19 12:24:00,
2013-03-19 08:39:00,24.8,20.0,30.12,NNE,16,11.0,18.0,83,0.00,,,0.00,weatherlink.com 1.10,2013-03-19 12:39:00,
2013-03-19 08:55:00,24.6,21.0,30.12,North,11,12.0,18.0,86,0.00,,,0.00,weatherlink.com 1.10,2013-03-19 12:55:00,
2013-03-19 09:10:00,24.5,22.0,30.12,NNE,22,10.0,17.0,90,0.00,,,0.00,weatherlink.com 1.10,2013-03-19 13:10:00,
2013-03-19 09:25:00,24.4,22.0,30.11,North,5,11.0,14.0,92,0.00,,,0.00,weatherlink.com 1.10,2013-03-19 13:25:00,
2013-03-19 09:40:00,24.7,23.0,30.11,NNE,12,9.0,14.0,93,0.00,,,0.00,weatherlink.com 1.10,2013-03-19 13:40:00,
2013-03-19 09:55:00,25.8,24.0,30.11,NNE,17,10.0,13.0,94,0.00,,,0.00,weatherlink.com 1.10,2013-03-19 13:55:00,
2013-03-19 10:10:00,26.8,26.0,30.11,NE,37,11.0,13.0,95,0.00,,,0.00,weatherlink.com 1.10,2013-03-19 14:10:00,
2013-03-19 10:40:00,26.3,25.0,30.09,NE,47,12.0,17.0,95,0.00,,,0.00,weatherlink.com 1.10,2013-03-19 14:40:00,
2013-03-19 10:55:00,26.5,25.0,30.08,NE,36,12.0,17.0,94,0.00,,,0.00,weatherlink.com 1.10,2013-03-19 14:55:00,
2013-03-19 11:10:00,26.6,25.0,30.07,NE,40,11.0,16.0,95,0.00,,,0.00,weatherlink.com 1.10,2013-03-19 15:10:00,
2013-03-19 11:25:00,26.5,25.0,30.06,NE,55,11.0,19.0,95,0.00,,,0.00,weatherlink.com 1.10,2013-03-19 15:25:00,
2013-03-19 11:40:00,26.4,25.0,30.06,NNE,31,6.0,17.0,95,0.00,,,0.00,weatherlink.com 1.10,2013-03-19 15:40:00,
2013-03-19 11:55:00,26.1,25.0,30.04,NE,36,11.0,18.0,95,0.00,,,0.00,weatherlink.com 1.10,2013-03-19 15:55:00,
2013-03-19 12:10:00,26.1,25.0,30.04,NE,35,13.0,19.0,94,0.00,,,0.00,weatherlink.com 1.10,2013-03-19 16:10:00,
2013-03-19 12:25:00,26.2,25.0,30.04,NNE,27,19.0,20.0,94,0.00,,,0.00,weatherlink.com 1.10,2013-03-19 16:25:00,
2013-03-19 12:40:00,26.1,25.0,30.03,NE,40,16.0,19.0,94,0.00,,,0.00,weatherlink.com 1.10,2013-03-19 16:40:00,
2013-03-19 12:55:00,26.0,25.0,30.02,NE,53,14.0,20.0,94,0.00,,,0.00,weatherlink.com 1.10,2013-03-19 16:55:00,
2013-03-19 13:10:00,26.2,25.0,30.00,NNE,24,12.0,20.0,94,0.00,,,0.00,weatherlink.com 1.10,2013-03-19 17:10:00,
2013-03-19 13:25:00,26.1,24.0,29.99,NE,42,14.0,19.0,93,0.00,,,0.00,weatherlink.com 1.10,2013-03-19 17:25:00,
2013-03-19 13:40:00,26.0,25.0,29.98,NE,46,12.0,15.0,94,0.00,,,0.00,weatherlink.com 1.10,2013-03-19 17:40:00,
2013-03-19 13:55:00,26.0,25.0,29.97,NE,42,12.0,18.0,94,0.00,,,0.00,weatherlink.com 1.10,2013-03-19 17:55:00,
2013-03-19 14:10:00,26.2,25.0,29.96,NE,49,13.0,19.0,94,0.00,,,0.00,weatherlink.com 1.10,2013-03-19 18:10:00,
2013-03-19 14:25:00,26.3,25.0,29.94,NE,36,14.0,21.0,94,0.00,,,0.00,weatherlink.com 1.10,2013-03-19 18:25:00,
2013-03-19 14:40:00,26.5,25.0,29.93,NNE,28,9.0,21.0,94,0.00,,,0.00,weatherlink.com 1.10,2013-03-19 18:40:00,
2013-03-19 14:55:00,26.2,25.0,29.91,NNE,19,17.0,18.0,94,0.00,,,0.00,weatherlink.com 1.10,2013-03-19 18:55:00,
2013-03-19 15:11:00,26.2,25.0,29.90,NE,44,15.0,25.0,94,0.00,,,0.00,weatherlink.com 1.10,2013-03-19 19:11:00,
2013-03-19 15:26:00,26.1,25.0,29.89,NE,51,16.0,19.0,95,0.00,,,0.00,weatherlink.com 1.10,2013-03-19 19:26:00,
2013-03-19 15:56:00,25.9,25.0,29.87,NNE,32,13.0,22.0,95,0.00,,,0.00,weatherlink.com 1.10,2013-03-19 19:56:00,
2013-03-19 16:11:00,26.0,25.0,29.86,NE,38,18.0,24.0,95,0.00,,,0.00,weatherlink.com 1.10,2013-03-19 20:11:00,
2013-03-19 16:26:00,25.9,25.0,29.85,NNE,28,13.0,21.0,95,0.00,,,0.00,weatherlink.com 1.10,2013-03-19 20:26:00,
2013-03-19 16:56:00,26.2,25.0,29.83,NE,51,16.0,26.0,94,0.00,,,0.00,weatherlink.com 1.10,2013-03-19 20:56:00,
2013-03-19 17:26:00,26.1,25.0,29.81,NNE,17,15.0,24.0,95,0.00,,,0.00,weatherlink.com 1.10,2013-03-19 21:26:00,
2013-03-19 17:41:00,26.2,25.0,29.81,NNE,31,13.0,21.0,96,0.00,,,0.00,weatherlink.com 1.10,2013-03-19 21:41:00,
2013-03-19 17:56:00,26.0,25.0,29.81,NNE,18,10.0,16.0,96,0.00,,,0.00,weatherlink.com 1.10,2013-03-19 21:56:00,
2013-03-19 18:11:00,25.8,25.0,29.81,NNE,22,13.0,16.0,96,0.00,,,0.00,weatherlink.com 1.10,2013-03-19 22:11:00,
2013-03-19 18:26:00,26.0,25.0,29.82,North,350,10.0,13.0,96,0.00,,,0.00,weatherlink.com 1.10,2013-03-19 22:26:00,
2013-03-19 19:11:00,25.7,25.0,29.77,NNE,17,13.0,15.0,96,0.00,,,0.00,weatherlink.com 1.10,2013-03-19 23:11:00,
2013-03-19 19:26:00,25.7,25.0,29.77,NNE,16,9.0,13.0,96,0.00,,,0.00,weatherlink.com 1.10,2013-03-19 23:26:00,
2013-03-19 19:41:00,25.9,25.0,29.75,North,11,13.0,15.0,97,0.00,,,0.00,weatherlink.com 1.10,2013-03-19 23:41:00,
2013-03-19 19:56:00,26.0,25.0,29.75,NNE,17,12.0,16.0,97,0.00,,,0.00,weatherlink.com 1.10,2013-03-19 23:56:00,
2013-03-19 20:11:00,26.0,25.0,29.74,North,360,13.0,14.0,97,0.00,,,0.00,weatherlink.com 1.10,2013-03-20 00:11:00,
2013-03-19 20:26:00,26.3,26.0,29.73,NNE,19,13.0,17.0,97,0.00,,,0.00,weatherlink.com 1.10,2013-03-20 00:26:00,
2013-03-19 20:41:00,26.5,26.0,29.71,NE,49,17.0,18.0,97,0.00,,,0.00,weatherlink.com 1.10,2013-03-20 00:41:00,
2013-03-19 21:11:00,26.6,26.0,29.68,NNE,25,19.0,25.0,97,0.00,,,0.00,weatherlink.com 1.10,2013-03-20 01:11:00,
2013-03-19 21:26:00,26.6,26.0,29.68,NE,38,15.0,21.0,97,0.00,,,0.00,weatherlink.com 1.10,2013-03-20 01:26:00,
2013-03-19 21:41:00,26.9,26.0,29.67,NE,46,18.0,22.0,97,0.00,,,0.00,weatherlink.com 1.10,2013-03-20 01:41:00,
2013-03-19 21:56:00,26.9,26.0,29.65,ENE,63,28.0,28.0,97,0.00,,,0.00,weatherlink.com 1.10,2013-03-20 01:56:00,
2013-03-19 22:11:00,26.8,26.0,29.64,NE,39,17.0,21.0,97,0.00,,,0.00,weatherlink.com 1.10,2013-03-20 02:11:00,
2013-03-19 22:26:00,26.7,26.0,29.64,NE,53,12.0,21.0,97,0.00,,,0.00,weatherlink.com 1.10,2013-03-20 02:26:00,
2013-03-19 22:41:00,26.9,26.0,29.62,NE,51,13.0,23.0,97,0.00,,,0.00,weatherlink.com 1.10,2013-03-20 02:41:00,
2013-03-19 22:57:00,26.9,26.0,29.61,NE,38,17.0,32.0,97,0.00,,,0.00,weatherlink.com 1.10,2013-03-20 02:57:00,
2013-03-19 23:12:00,26.6,26.0,29.61,NE,38,14.0,20.0,97,0.00,,,0.00,weatherlink.com 1.10,2013-03-20 03:12:00,
2013-03-19 23:27:00,26.6,26.0,29.59,North,360,16.0,20.0,97,0.00,,,0.00,weatherlink.com 1.10,2013-03-20 03:27:00,
2013-03-19 23:42:00,26.8,26.0,29.57,NNE,16,15.0,22.0,97,0.00,,,0.00,weatherlink.com 1.10,2013-03-20 03:42:00,
2013-03-19 23:57:00,26.5,26.0,29.57,North,5,12.0,21.0,97,0.00,,,0.00,weatherlink.com 1.10,2013-03-20 03:57:00,